Skip Page Navigation
NASA JPL Caltech
NASA Logo - Jet Propulsion Laboratory + View the NASA Portal
+ Near-Earth Object (NEO) Program
Search JPL
JPL Home Earth Solar System Stars & Galaxies Technology
JPL Solar System Dynamics
BODIES ORBITS EPHEMERIDES TOOLS PHYSICAL DATA DISCOVERY FAQ SITE MAP
JPL Small-Body Database Browser
Search: [ help ]  
30441 Curly (2000 MX)
Classification: Main-belt Asteroid          SPK-ID: 2030441
Ephemeris | Orbit Diagram | Orbital Elements | Physical Parameters | Discovery Circumstances | Close-Approach Data ]

[ show orbit diagram ]
Orbital Elements at Epoch 2457000.5 (2014-Dec-09.0) TDB
Reference: JPL 6 (heliocentric ecliptic J2000)
 Element Value Uncertainty (1-sigma)   Units 
e .1566827864605621 7.3412e-08  
a 3.133302017022237 3.7703e-08 AU
q 2.642367526172694 2.313e-07 AU
i 6.455322510941145 7.2166e-06 deg
node 71.97143382927972 6.9862e-05 deg
peri 256.0298415492872 7.378e-05 deg
M 174.0502998344045 2.771e-05 deg
tp 2456021.068450809103
(2012-Apr-03.56845081)
0.00015156 JED
period 2025.824477430894
5.55
3.6565e-05
1.001e-07
d
yr
n .1777054251296954 3.2075e-09 deg/d
Q 3.624236507871781 4.3611e-08 AU
  Orbit Determination Parameters
   # obs. used (total)      646  
   data-arc span      7180 days (19.66 yr)  
   first obs. used      1994-05-14  
   last obs. used      2014-01-09  
   planetary ephem.      DE431  
   SB-pert. ephem.      SB431-BIG16  
   condition code      0  
   fit RMS      .55551  
   data source      ORB  
   producer      Otto Matic  
   solution date      2014-Jun-10 02:35:16  

Additional Information
 Earth MOID = 1.64122 AU 
 T_jup = 3.184 
[ show covariance matrix ]

Ephemeris | Orbit Diagram | Orbital Elements | Physical Parameters | Discovery Circumstances | Close-Approach Data ]

Physical Parameter Table
Parameter Symbol Value Units Sigma Reference Notes
absolute magnitude H 13.8 mag n/a MPO253566  

30441 Curly           Discovered 2000 June 24 by J. Broughton at Reedy Creek Observatory.
Brooklyn-born Curly Howard (Jerome Horwitz, 1903-1952) of Three Stooges fame was one of the greats of comedy. Generally forgetful of his lines, he would ad-lib much of the time.
NOTE: some special characters may not display properly (any characters within {} are an attempt to place the proper accent above a character)
Reference: 20020427/MPCPages.arcLast Updated: 2003-10-02

[ show close-approach data ]
Ephemeris | Orbit Diagram | Orbital Elements | Physical Parameters | Discovery Circumstances | Close-Approach Data ]
ABOUT SSD CREDITS/AWARDS PRIVACY/COPYRIGHT GLOSSARY LINKS
FirstGov 2014-Oct-26 01:48 UT
(server date/time)  
NASA Home Page
Site Manager:   Donald K. Yeomans
Webmaster  Alan B. Chamberlin